Location: Unspecified
(0.0000°N, 0.0000°E)
Time: 20:44:04
(UTC+02:00)

NOAA 12 - Visible Passes

Search period start: 06 May 2016 00:00
Search period end: 16 May 2016 00:00
Orbit: 795 x 816 km, 98.6° (Epoch: 05 May)

Date Brightness Start Highest point End Pass type
(mag) Time Alt. Az. Time Alt. Az. Time Alt. Az.
06 May 4.9 20:33:34 10° SE 20:38:07 30° ENE 20:42:39 10° NNE visible
06 May 6.6 22:14:25 10° SW 22:17:38 16° WSW 22:20:50 10° WNW visible
07 May 5.6 21:48:07 10° SSW 21:52:46 33° WSW 21:57:24 10° NW visible
08 May 4.4 21:22:41 10° S 21:27:53 66° WSW 21:33:03 10° NNW visible
09 May 4.1 20:57:50 10° SSE 21:03:00 62° ENE 21:08:08 10° N visible
10 May 4.9 20:33:34 10° SE 20:38:07 30° ENE 20:42:38 10° NNE visible
10 May 6.6 22:14:26 10° SW 22:17:37 16° WSW 22:20:48 10° WNW visible
11 May 5.6 21:48:07 10° SSW 21:52:46 32° WSW 21:57:23 10° NW visible
12 May 4.4 21:22:41 10° S 21:27:53 66° WSW 21:33:03 10° NNW visible
13 May 4.1 20:57:49 10° SSE 21:02:59 62° ENE 21:08:08 10° N visible
14 May 4.9 20:33:33 10° SE 20:38:06 31° ENE 20:42:38 10° NNE visible
14 May 6.6 22:14:26 10° SW 22:17:37 16° WSW 22:20:47 10° WNW visible
15 May 5.6 21:48:07 10° SSW 21:52:45 32° WSW 21:57:22 10° NW visible
